カタログに戻る

COSMOS 2230

運用中ナビゲーションPO
NORAD 22307·PAYLOAD·🇷🇺 Russia

打ち上げ Jan 12, 1993 から Plesetsk Cosmodrome

Loading…

次のパス (今後24時間)

TLE

最新Source: Space-Track

元期: Sep 14, 2026, 15:18 UTC

1 22307U 93001A   26257.63796736  .00000070  00000-0  58288-4 0  9998
2 22307  82.9402 222.3366 0023008 276.7011 256.8768 13.73899538679361

AllMySatでCOSMOS 2230をリアルタイム追跡

Download on the App Store